Cloud_Cover
68 91 48 18 23 16 5 5 7 7 5 10 5 5 26 100 100 100 69 1 0 6 9 0 5 40 0 0 0 0 0 65
68 70 100 100 89 6 5 20 22 26 18 5 45 69 95 100 100 93 0 7 37 43 54 99 1 1 0 0 0 0 0 32
100 100 100 100 100 73 43 14 23 21 32 5 59 100 100 100 100 10 26 47 89 100 100 0 0 0 0 0 0 0 0 37
100 100 100 100 100 100 69 50 52 58 87 15 100 100 100 100 71 24 54 48 77 12 4 5 2 0 0 0 0 0 0 0
100 100 98 56 100 100 100 81 50 99 100 100 100 100 100 100 98 64 96 30 5 5 38 98 60 14 0 0 0 0 0 2
100 100 99 95 100 100 100 50 37 100 100 100 86 100 100 100 100 94 7 2 0 5 10 71 54 8 0 0 0 0 0 0
100 100 100 100 100 100 100 66 49 70 100 85 100 100 100 100 100 42 8 11 5 5 48 100 32 4 0 0 0 0 0 0
100 100 100 100 100 100 100 22 26 20 99 100 100 100 100 100 98 23 26 29 5 10 10 96 35 4 0 0 0 0 0 0
100 100 100 100 100 97 61 100 39 35 94 100 100 100 100 100 60 32 21 16 89 64 5 38 16 1 4 1 0 0 0 0
100 78 100 100 100 100 100 48 71 100 100 100 100 100 100 99 100 52 38 52 98 100 28 1 80 49 5 3 0 0 0 0
100 100 100 100 100 77 5 21 71 100 100 98 100 100 100 100 85 100 100 100 100 100 53 8 82 100 28 5 0 0 0 1
100 100 100 100 100 56 52 100 97 99 100 39 100 100 100 100 100 100 100 100 99 100 69 92 100 65 85 5 0 0 0 1
100 100 100 100 100 100 100 99 100 100 80 100 100 100 100 100 92 100 100 100 100 100 100 82 100 100 100 5 0 2 0 2
100 100 100 100 100 100 100 100 100 100 100 100 100 100 100 100 88 100 50 100 100 100 100 100 100 100 100 38 1 2 1 2
100 100 100 100 100 100 98 100 100 98 92 100 100 100 100 100 100 100 100 100 100 100 48 60 91 100 100 85 5 5 5 5
100 100 100 100 100 93 89 70 99 80 100 100 100 100 100 100 100 100 100 100 100 100 56 91 100 100 100 99 5 5 5 31
100 100 100 100 100 100 100 85 100 60 100 100 70 51 100 100 100 100 100 100 100 100 100 72 100 100 100 83 5 5 15 5
100 100 100 100 100 100 100 100 97 100 100 100 100 100 100 100 100 100 100 100 100 100 87 92 100 100 100 42 6 5 5 5
99 100 100 100 100 100 100 100 100 100 100 98 83 93 89 94 100 100 100 100 100 100 90 100 100 100 100 16 5 92 5 5
100 100 100 100 100 100 100 100 88 91 99 100 79 100 100 85 100 100 100 96 100 100 100 100 100 100 100 100 17 51 5 5